Location: Bremen
(53.0793°N, 8.8017°E)
Time: 11:34:09
(UTC+01:00)

S-56A Canister/Altair - Pass Details

Date: 08 December 2021
Orbit: 634 x 2499 km, 38.9° (Epoch: 25 January)

Event Time Altitude Azimuth Distance (km) Brightness Sun altitude
Rises 02:05:35 0° 256° (WSW) 4,905 - -53.3°
Reaches altitude 10° 02:09:52 10° 245° (WSW) 3,566 - -52.8°
Maximum altitude 02:16:29 25° 195° (SSW) 2,091 - -52.1°
Drops below altitude 10° 02:21:27 10° 142° (SE) 2,594 - -51.5°
Sets 02:24:02 0° 128° (SE) 3,338 - -51.2°
